Regional Weather Roundup
Issued by NWS Burlington, VT

Home | Current Version | Previous Version | Text Only | Print | Product List | Glossary On
Versions: 1 2 3 4 5 6 7 8 9 10 11 12 13 14 15 16 17 18 19 20 21 22 23 24 25 26 27 28 29 30 31 32 33 34 35 36 37 38 39 40 41 42 43 44 45 46 47 48 49 50
066
ASUS41 KBTV 161330
RWRBTV
VERMONT REGIONAL WEATHER ROUNDUP
NATIONAL WEATHER SERVICE BURLINGTON VT
800 AM EST MON JAN 16 2017

NOTE: "FAIR" INDICATES FEW OR NO CLOUDS BELOW 12,000 FEET WITH NO
SIGNIFICANT WEATHER AND/OR OBSTRUCTIONS TO VISIBILITY.

* THESE REPORTS ARE NOT UNDER NWS QUALITY CONTROL AND/OR DO NOT
  REPORT WEATHER SUCH AS PRECIPITATION AND FOG.

VTZ001>019-161400-
_____VERMONT_____


CITY           SKY/WX    TMP DP  RH WIND       PRES   REMARKS
BURLINGTON     PTCLDY    12   8  84 SE5       30.36S WCI   4
MONTPELIER     CLOUDY     4   2  91 CALM      30.35R
MORRISVILLE    CLOUDY     7   3  84 CALM      30.35S
ST. JOHNSBURY*   N/A      5   1  83 MISG      30.36S
LYNDONVILLE*   CLOUDY     5   2  88 CALM      30.32F
MIDDLEBURY*    FAIR      22   7  52 S8        30.36S WCI  12
RUTLAND*       PTCLDY    11   7  84 SE8       30.38S WCI  -1
SPRINGFIELD    CLOUDY     6   2  83 CALM      30.40S
HIGHGATE*      MOCLDY    21  13  71 S7        30.32F WCI  13
NEWPORT*       MOCLDY    16   8  70 S7        30.30F WCI   6
BENNINGTON     CLEAR     12   8  84 CALM      30.38R
ISLAND POND*     N/A      1 N/A N/A CALM        N/A
GALLUP MILLS*    N/A      3 N/A N/A MISG        N/A

_____LAKE CHAMPLAIN_____


CITY           SKY/WX    TMP DP  RH WIND       PRES   REMARKS
DIAMOND ISL*     N/A     21  18  86 S9          N/A  WCI  11

$$

NYZ007-026>031-035-052-083-087-161400-
_____NORTHERN NEW YORK_____


CITY           SKY/WX    TMP DP  RH WIND       PRES   REMARKS
PLATTSBURGH    MOCLDY    15   9  76 S5        30.33F WCI   8
SARANAC LAKE   PTCLDY    19  15  84 MISG      30.24F
MASSENA        PTCLDY    26  20  77 SW12      30.30F WCI  16
OGDENSBURG*    CLEAR     27  21  80 S5        30.31S WCI  21
POTSDAM*       CLEAR     27  21  80 SW14G23   30.30F WCI  15
WATERTOWN      CLOUDY    26  20  77 S9G18     30.35S WCI  17
FT DRUM        CLEAR     22  16  78 S10       30.32S WCI  11
ALBANY         PTCLDY    15  11  83 CALM      30.44R
GLENS FALLS    CLOUDY    11   6  81 CALM      30.42R

$$
NHZ002-005-011-161400-
_____NEW HAMPSHIRE_____


CITY           SKY/WX    TMP DP  RH WIND       PRES   REMARKS
LEBANON        PTCLDY     9   5  84 CALM      30.38S
KEENE          CLOUDY     7   5  91 CALM      30.41F
MT WASHINGTON  PTCLDY     7 -17  33 W39         N/A  WCI -19
PLYMOUTH       FAIR       5   2  89 CALM      30.40S
WHITEFIELD     CLOUDY     4  -2  76 CALM      30.32R

$$

_____REGIONAL QUEBEC LOCATIONS_____


CITY           SKY/WX    TMP DP  RH WIND       PRES   REMARKS
MONTREAL       CLOUDY    25  18  74 S13       30.27F WCI  13
QUEBEC CITY    CLOUDY     7   0  72 N3        30.22F
SHERBROOKE     CLOUDY     9   3  78 VRB2      30.27F

_____REGIONAL ONTARIO LOCATIONS_____


CITY           SKY/WX    TMP DP  RH WIND       PRES   REMARKS
OTTAWA         PTCLDY    16  14  93 S6        30.24F WCI   7

______KEY______
VSB  - VISIBILITY IN MILES
WCI  - WIND CHILL INDEX
HX   - HEAT INDEX
$$
NNNN




USA.gov is the U.S. government's official web portal to all federal, state and local government web resources and services.